Arlington, WA
on Monday, November 26, 2012

Monday
Previous Day Next Day
Daily Summary
 ActualAverageRecord
Temperature
Mean Temperature °F °F  
Max Temperature 44°F 46°F 55°F (2011)
Min Temperature 23°F 25°F 23°F (2012)
Degree Days
Heating Degree Days 32    
Growing Degree Days0 (Base °F )  
Moisture
Dew Point 28°F   
Average Humidity 86    
Maximum Humidity 100    
Minimum Humidity 66    
Precipitation
Precipitation 0.00 in in in ()
Wind
Wind Speed 1 mph   
Max Wind Speed 6 mph   
Max Gust Speed mph   
Visibility 6 miles   
Events     
Averages and records for this station are not official NWS values.
Key: T is trace of precipitation, MM is missing value
Source: NWS Daily Summary
Seasonal Weather Averages
Time(PST)TemperatureDew PointHumidity Pressure Visibility Wind DirectionWind SpeedGust SpeedPrecipitationEvents Conditions
12:15 AM 30.2°F 28.4°F 93% 30.26 in 2.0 miles Calm Calm - N/A   Overcast
12:35 AM 28.4°F 24.8°F 86% 30.26 in 0.2 miles North 3.5 mph - N/A   Overcast
12:55 AM 28.4°F 26.6°F 93% 30.26 in 1.0 miles Calm Calm - N/A   Overcast
1:15 AM 28.4°F 28.4°F 100% 30.25 in 8.0 miles Calm Calm - N/A   Partly Cloudy
1:35 AM 28.4°F 26.6°F 93% 30.25 in 5.0 miles Calm Calm - N/A   Clear
1:55 AM 28.4°F 24.8°F 86% 30.25 in 0.8 miles Calm Calm - N/A   Unknown
2:15 AM 28.4°F 26.6°F 93% 30.23 in 9.0 miles Calm Calm - N/A   Clear
2:55 AM 24.8°F 24.8°F 100% 30.22 in 3.0 miles Calm Calm - N/A   Clear
3:15 AM 28.4°F 26.6°F 93% 30.22 in 0.8 miles Calm Calm - N/A   Unknown
3:35 AM 24.8°F 21.2°F 86% 30.21 in 0.8 miles Calm Calm - N/A   Mostly Cloudy
3:55 AM 24.8°F 23.0°F 93% 30.20 in 0.2 miles Calm Calm - N/A   Overcast
4:15 AM 24.8°F 21.2°F 86% 30.20 in 0.5 miles Calm Calm - N/A   Mostly Cloudy
4:35 AM 24.8°F 23.0°F 93% 30.20 in 1.0 miles Calm Calm - N/A   Scattered Clouds
4:55 AM 26.6°F 24.8°F 93% 30.20 in 1.2 miles Calm Calm - N/A   Clear
5:15 AM 26.6°F 24.8°F 93% 30.20 in 7.0 miles Calm Calm - N/A   Clear
5:35 AM 26.6°F 24.8°F 93% 30.19 in 9.0 miles Calm Calm - N/A   Clear
5:55 AM 26.6°F 26.6°F 100% 30.19 in 10.0 miles Calm Calm - N/A   Clear
6:15 AM 26.6°F 24.8°F 93% 30.20 in 1.2 miles Calm Calm - N/A   Clear
6:35 AM 26.6°F 24.8°F 93% 30.19 in 1.0 miles Calm Calm - N/A   Clear
6:55 AM 24.8°F 21.2°F 86% 30.19 in 0.5 miles Calm Calm - N/A   Mostly Cloudy
7:15 AM 24.8°F 23.0°F 93% 30.19 in 0.2 miles Calm Calm - N/A   Overcast
7:35 AM 24.8°F 23.0°F 93% 30.18 in 0.8 miles Calm Calm - N/A   Overcast
7:55 AM 23.0°F 21.2°F 93% 30.17 in 0.5 miles Calm Calm - N/A   Mostly Cloudy
8:15 AM 24.8°F 21.2°F 86% 30.16 in 0.2 miles Calm Calm - N/A   Overcast
8:35 AM 26.6°F 24.8°F 93% 30.16 in 4.0 miles Calm Calm - N/A   Partly Cloudy
8:55 AM 26.6°F 24.8°F 93% 30.15 in 8.0 miles Calm Calm - N/A   Clear
9:15 AM 30.2°F 28.4°F 93% 30.16 in 7.0 miles Calm Calm - N/A   Clear
9:35 AM 30.2°F 28.4°F 93% 30.16 in 10.0 miles Calm Calm - N/A   Clear
9:55 AM 32.0°F 30.2°F 93% 30.16 in 10.0 miles Calm Calm - N/A   Clear
10:15 AM 33.8°F 30.2°F 87% 30.16 in 10.0 miles Calm Calm - N/A   Clear
10:35 AM 35.6°F 32.0°F 87% 30.15 in 10.0 miles Calm Calm - N/A   Clear
10:55 AM 35.6°F 33.8°F 93% 30.15 in 10.0 miles Calm Calm - N/A   Clear
11:15 AM 37.4°F 33.8°F 87% 30.14 in 10.0 miles Calm Calm - N/A   Clear
11:35 AM 39.2°F 33.8°F 81% 30.14 in 10.0 miles Calm Calm - N/A   Clear
11:55 AM 39.2°F 33.8°F 81% 30.13 in 10.0 miles Calm Calm - N/A   Clear
12:15 PM 41.0°F 33.8°F 76% 30.12 in 10.0 miles Calm Calm - N/A   Clear
12:35 PM 42.8°F 33.8°F 70% 30.12 in 10.0 miles Calm Calm - N/A   Clear
12:55 PM 42.8°F 33.8°F 70% 30.11 in 10.0 miles Calm Calm - N/A   Clear
1:15 PM 44.6°F 33.8°F 66% 30.10 in 10.0 miles Calm Calm - N/A   Clear
1:35 PM 44.6°F 33.8°F 66% 30.09 in 10.0 miles NW 5.8 mph - N/A   Clear
1:55 PM 44.6°F 33.8°F 66% 30.09 in 10.0 miles NW 3.5 mph - N/A   Clear
2:15 PM 44.6°F 33.8°F 66% 30.09 in 10.0 miles NNW 4.6 mph - N/A   Clear
2:35 PM 44.6°F 33.8°F 66% 30.09 in 10.0 miles NNW 3.5 mph - N/A   Clear
2:55 PM 44.6°F 33.8°F 66% 30.09 in 10.0 miles NW 4.6 mph - N/A   Clear
3:15 PM 44.6°F 35.6°F 71% 30.09 in 10.0 miles NW 4.6 mph - N/A   Clear
3:35 PM 42.8°F 35.6°F 76% 30.09 in 10.0 miles NNW 4.6 mph - N/A   Clear
3:55 PM 41.0°F 33.8°F 76% 30.08 in 10.0 miles Calm Calm - N/A   Clear
4:15 PM 39.2°F 33.8°F 81% 30.08 in 10.0 miles Calm Calm - N/A   Clear
4:35 PM 37.4°F 30.2°F 75% 30.09 in 10.0 miles WNW 3.5 mph - N/A   Clear
4:55 PM 37.4°F 32.0°F 81% 30.08 in 10.0 miles Calm Calm - N/A   Clear
5:15 PM 37.4°F 30.2°F 75% 30.08 in 10.0 miles Calm Calm - N/A   Clear
5:35 PM 37.4°F 32.0°F 81% 30.08 in 10.0 miles Calm Calm - N/A   Clear
5:55 PM 35.6°F 30.2°F 81% 30.08 in 10.0 miles Calm Calm - N/A   Clear
6:15 PM 33.8°F 30.2°F 87% 30.09 in 10.0 miles Calm Calm - N/A   Clear
6:35 PM 33.8°F 28.4°F 81% 30.08 in 10.0 miles Calm Calm - N/A   Clear
6:55 PM 32.0°F 28.4°F 87% 30.09 in 10.0 miles Calm Calm - N/A   Clear
7:15 PM 32.0°F 28.4°F 87% 30.08 in 10.0 miles Calm Calm - N/A   Clear
7:35 PM 32.0°F 28.4°F 87% 30.08 in 10.0 miles Calm Calm - N/A   Clear
7:55 PM 30.2°F 28.4°F 93% 30.08 in 10.0 miles Calm Calm - N/A   Clear
8:15 PM 33.8°F 30.2°F 87% 30.08 in 5.0 miles Calm Calm - N/A   Clear
8:35 PM 30.2°F 28.4°F 93% 30.09 in 2.5 miles Calm Calm - N/A   Clear
8:55 PM 30.2°F 28.4°F 93% 30.09 in 5.0 miles Calm Calm - N/A   Clear
9:15 PM 28.4°F 28.4°F 100% 30.09 in 0.8 miles Calm Calm - N/A   Unknown
9:35 PM 30.2°F 28.4°F 93% 30.09 in 8.0 miles Calm Calm - N/A   Clear
9:55 PM 28.4°F 28.4°F 100% 30.09 in 0.5 miles Calm Calm - N/A   Unknown
10:15 PM 26.6°F 24.8°F 93% 30.09 in 0.5 miles Calm Calm - N/A   Mostly Cloudy
10:35 PM 28.4°F 26.6°F 93% 30.09 in 4.0 miles Calm Calm - N/A   Partly Cloudy
10:55 PM 30.2°F 28.4°F 93% 30.10 in 1.5 miles Calm Calm - N/A   Clear
11:15 PM 28.4°F 26.6°F 93% 30.10 in 1.5 miles Calm Calm - N/A   Clear
11:35 PM 30.2°F 28.4°F 93% 30.10 in 5.0 miles Calm Calm - N/A   Clear
11:55 PM 28.4°F 24.8°F 86% 30.10 in 6.0 miles Calm Calm - N/A   Clear
Moon Phase
Nov. 26 Nov. 28 Dec. 06 Dec. 13 Dec. 20
Sunrise:07:32 AM (PST) Moon Rise:03:19 PM (PST)
Sunset:04:19 PM (PST) Moon Set:05:42 AM (PST)

Copyright © 2014 The Weather Underground, Inc.